ZHONGXING-2E

Last updated on Tue Oct 08 2024 00:02:41 GMT+0000 (Coordinated Universal Time)

1 49062U 21071A 24281.62265700 -.00000281 00000+0 00000+0 0 9997 2 49062 0.0460 318.4282 0001618 290.2240 90.3632 1.00271484 11840
UTC large
Height (km)
Speed (km/s)
/
Latitude / Longitude
Inclination (degrees)
Orbital Period (minutes)
Azimuth
Elevation
Range (km)
Doppler Factor

Next 0 passes for location: London (51.5072 / 0.1276)

Sorry there are no passes over London.